Powrót do katalogu

STARLINK-6247

AktywnyŁącznośćVLEO
NORAD 57086·PAYLOAD·🇺🇸 United States

Wystrzelony Jun 22, 2023 z Vandenberg Space Force Base

Loading…

Następne Przeloty (najbliższe 24 godziny)

TLE

ŚwieżeSource: CelesTrak SupGP

Epoka: Sep 15, 2026, 01:42 UTC

1 57086C 23088AQ  26258.07131944  .00046472  00000+0  16836-2 0  2585
2 57086  43.0000 106.5064 0001391 259.2829 145.9047 15.27548278    18

Śledź STARLINK-6247 w czasie rzeczywistym z AllMySat

Download on the App Store